TimeCST,TemperatureF,Dew PointF,Humidity,Sea Level PressureIn,VisibilityMPH,Wind Direction,Wind SpeedMPH,Gust SpeedMPH,PrecipitationIn,Events,Conditions,WindDirDegrees,DateUTC
12:55 AM,34.5,32.4,92,30.31,10.0,SSE,6.9,-,N/A,,Clear,150,2012-11-30 06:55:00
1:55 AM,34.7,33.4,95,30.32,6.0,SSE,4.6,-,N/A,,Clear,160,2012-11-30 07:55:00
2:26 AM,33.8,33.8,100,30.31,3.0,SE,5.8,-,N/A,,Clear,140,2012-11-30 08:26:00
2:27 AM,35.6,33.8,93,30.31,2.5,SE,5.8,-,N/A,,Clear,140,2012-11-30 08:27:00
2:28 AM,35.6,33.8,93,30.31,1.8,SE,5.8,-,N/A,,Clear,140,2012-11-30 08:28:00
2:29 AM,33.8,33.8,100,30.31,1.5,SE,5.8,-,N/A,,Clear,140,2012-11-30 08:29:00
2:30 AM,33.8,33.8,100,30.31,1.2,SSE,5.8,-,N/A,,Clear,150,2012-11-30 08:30:00
2:31 AM,33.8,32.0,93,30.31,1.0,SSE,5.8,-,N/A,,Clear,150,2012-11-30 08:31:00
2:33 AM,33.8,32.0,93,30.31,0.8,SSE,5.8,-,N/A,,Clear,150,2012-11-30 08:33:00
2:34 AM,33.8,32.0,93,30.31,0.8,SSE,5.8,-,N/A,,Clear,150,2012-11-30 08:34:00
2:35 AM,33.8,32.0,93,30.31,0.8,SSE,4.6,-,N/A,,Clear,150,2012-11-30 08:35:00
2:36 AM,33.8,32.0,93,30.31,0.5,SSE,4.6,-,N/A,Fog,Fog,150,2012-11-30 08:36:00
2:39 AM,33.8,32.0,93,30.31,0.5,SSE,5.8,-,N/A,Fog,Fog,150,2012-11-30 08:39:00
2:48 AM,33.8,33.8,100,30.31,0.5,SSE,5.8,-,N/A,Fog,Fog,150,2012-11-30 08:48:00
2:49 AM,33.8,33.8,100,30.31,0.5,SSE,5.8,-,N/A,Fog,Fog,150,2012-11-30 08:49:00
2:50 AM,33.8,33.8,100,30.31,0.5,SSE,5.8,-,N/A,Fog,Fog,150,2012-11-30 08:50:00
2:51 AM,33.8,33.8,100,30.31,0.8,SSE,5.8,-,N/A,,Clear,150,2012-11-30 08:51:00
2:53 AM,33.8,33.8,100,30.31,1.0,SSE,6.9,-,N/A,,Clear,150,2012-11-30 08:53:00
2:54 AM,33.8,33.8,100,30.30,1.2,SSE,6.9,-,N/A,,Clear,150,2012-11-30 08:54:00
2:55 AM,34.0,32.9,96,30.30,1.8,SSE,6.9,-,N/A,,Clear,150,2012-11-30 08:55:00
2:56 AM,33.8,32.0,93,30.30,3.0,SSE,6.9,-,N/A,,Clear,150,2012-11-30 08:56:00
2:57 AM,33.8,32.0,93,30.30,5.0,SSE,5.8,-,N/A,,Clear,160,2012-11-30 08:57:00
3:40 AM,35.6,33.8,93,30.31,4.0,Calm,Calm,-,N/A,,Clear,0,2012-11-30 09:40:00
3:41 AM,35.6,33.8,93,30.31,3.0,SSE,3.5,-,N/A,,Clear,160,2012-11-30 09:41:00
3:42 AM,35.6,33.8,93,30.31,2.5,SSE,3.5,-,N/A,,Clear,160,2012-11-30 09:42:00
3:44 AM,33.8,33.8,100,30.31,1.8,Calm,Calm,-,N/A,,Clear,0,2012-11-30 09:44:00
3:49 AM,33.8,32.0,93,30.31,2.0,Calm,Calm,-,N/A,,Clear,0,2012-11-30 09:49:00
3:52 AM,32.0,32.0,100,30.31,3.0,Calm,Calm,-,N/A,,Clear,0,2012-11-30 09:52:00
3:53 AM,32.0,32.0,100,30.31,5.0,Calm,Calm,-,N/A,,Clear,0,2012-11-30 09:53:00
3:55 AM,32.7,31.5,95,30.31,6.0,Calm,Calm,-,N/A,,Clear,0,2012-11-30 09:55:00
4:25 AM,30.2,30.2,100,30.31,4.0,Calm,Calm,-,N/A,,Clear,0,2012-11-30 10:25:00
4:27 AM,30.2,30.2,100,30.31,3.0,Calm,Calm,-,N/A,,Clear,0,2012-11-30 10:27:00
4:30 AM,30.2,28.4,93,30.31,4.0,Calm,Calm,-,N/A,,Clear,0,2012-11-30 10:30:00
4:36 AM,32.0,30.2,93,30.31,5.0,Calm,Calm,-,N/A,,Clear,0,2012-11-30 10:36:00
4:55 AM,33.1,31.8,95,30.32,7.0,Calm,Calm,-,N/A,,Clear,0,2012-11-30 10:55:00
5:12 AM,33.8,32.0,93,30.32,4.0,Calm,Calm,-,N/A,,Clear,0,2012-11-30 11:12:00
5:13 AM,33.8,32.0,93,30.32,2.5,Calm,Calm,-,N/A,,Clear,0,2012-11-30 11:13:00
5:15 AM,33.8,32.0,93,30.32,1.8,Calm,Calm,-,N/A,,Clear,0,2012-11-30 11:15:00
5:18 AM,33.8,32.0,93,30.32,1.5,Calm,Calm,-,N/A,,Clear,0,2012-11-30 11:18:00
5:20 AM,33.8,32.0,93,30.32,1.5,Calm,Calm,-,N/A,,Clear,0,2012-11-30 11:20:00
5:21 AM,33.8,32.0,93,30.33,1.2,Calm,Calm,-,N/A,,Clear,0,2012-11-30 11:21:00
5:22 AM,33.8,32.0,93,30.32,1.5,Calm,Calm,-,N/A,,Clear,0,2012-11-30 11:22:00
5:24 AM,32.0,32.0,100,30.33,1.8,Calm,Calm,-,N/A,,Clear,0,2012-11-30 11:24:00
5:25 AM,32.0,32.0,100,30.33,2.0,Calm,Calm,-,N/A,,Clear,0,2012-11-30 11:25:00
5:26 AM,32.0,32.0,100,30.33,1.8,Calm,Calm,-,N/A,,Clear,0,2012-11-30 11:26:00
5:29 AM,32.0,30.2,93,30.33,2.0,Calm,Calm,-,N/A,,Clear,0,2012-11-30 11:29:00
5:32 AM,32.0,30.2,93,30.32,3.0,Calm,Calm,-,N/A,,Clear,0,2012-11-30 11:32:00
5:33 AM,32.0,30.2,93,30.32,4.0,Calm,Calm,-,N/A,,Clear,0,2012-11-30 11:33:00
5:34 AM,32.0,30.2,93,30.32,4.0,Calm,Calm,-,N/A,,Clear,0,2012-11-30 11:34:00
5:35 AM,32.0,30.2,93,30.32,5.0,Calm,Calm,-,N/A,,Clear,0,2012-11-30 11:35:00
5:44 AM,32.0,32.0,100,30.32,4.0,Calm,Calm,-,N/A,,Clear,0,2012-11-30 11:44:00
5:45 AM,32.0,32.0,100,30.32,3.0,Calm,Calm,-,N/A,,Clear,0,2012-11-30 11:45:00
5:46 AM,32.0,32.0,100,30.32,2.0,Calm,Calm,-,N/A,,Clear,0,2012-11-30 11:46:00
5:47 AM,32.0,32.0,100,30.32,1.8,Calm,Calm,-,N/A,,Clear,0,2012-11-30 11:47:00
5:48 AM,32.0,32.0,100,30.32,1.2,Calm,Calm,-,N/A,,Clear,0,2012-11-30 11:48:00
5:49 AM,32.0,32.0,100,30.33,1.0,Calm,Calm,-,N/A,,Clear,0,2012-11-30 11:49:00
5:50 AM,32.0,32.0,100,30.33,0.8,Calm,Calm,-,N/A,,Clear,0,2012-11-30 11:50:00
5:51 AM,32.0,30.2,93,30.32,0.8,Calm,Calm,-,N/A,,Clear,0,2012-11-30 11:51:00
5:52 AM,32.0,30.2,93,30.32,0.5,Calm,Calm,-,N/A,Fog,Fog,0,2012-11-30 11:52:00
5:53 AM,32.0,30.2,93,30.32,0.5,Calm,Calm,-,N/A,Fog,Light Freezing Fog,0,2012-11-30 11:53:00
5:55 AM,31.8,30.7,96,30.32,2.0,Calm,Calm,-,N/A,,Clear,0,2012-11-30 11:55:00
5:59 AM,32.0,30.2,93,30.32,0.8,Calm,Calm,-,N/A,,Clear,0,2012-11-30 11:59:00
6:00 AM,32.0,30.2,93,30.32,0.8,Calm,Calm,-,N/A,,Clear,0,2012-11-30 12:00:00
6:03 AM,30.2,30.2,100,30.33,1.5,Calm,Calm,-,N/A,,Clear,0,2012-11-30 12:03:00
6:16 AM,30.2,30.2,100,30.33,2.0,Calm,Calm,-,N/A,,Clear,0,2012-11-30 12:16:00
6:17 AM,30.2,30.2,100,30.33,1.2,Calm,Calm,-,N/A,,Clear,0,2012-11-30 12:17:00
6:18 AM,32.0,30.2,93,30.33,1.0,Calm,Calm,-,N/A,,Clear,0,2012-11-30 12:18:00
6:20 AM,30.2,30.2,100,30.33,0.8,Calm,Calm,-,N/A,,Clear,0,2012-11-30 12:20:00
6:21 AM,30.2,30.2,100,30.33,0.8,Calm,Calm,-,N/A,,Clear,0,2012-11-30 12:21:00
6:22 AM,30.2,30.2,100,30.33,0.8,Calm,Calm,-,N/A,,Clear,0,2012-11-30 12:22:00
6:23 AM,32.0,30.2,93,30.33,0.8,Calm,Calm,-,N/A,,Clear,0,2012-11-30 12:23:00
6:25 AM,32.0,30.2,93,30.33,1.0,Calm,Calm,-,N/A,,Clear,0,2012-11-30 12:25:00
6:26 AM,32.0,30.2,93,30.34,1.2,Calm,Calm,-,N/A,,Clear,0,2012-11-30 12:26:00
6:27 AM,32.0,30.2,93,30.33,1.5,Calm,Calm,-,N/A,,Clear,0,2012-11-30 12:27:00
6:28 AM,32.0,30.2,93,30.33,2.0,Calm,Calm,-,N/A,,Partly Cloudy,0,2012-11-30 12:28:00
6:29 AM,32.0,30.2,93,30.34,1.8,Calm,Calm,-,N/A,,Partly Cloudy,0,2012-11-30 12:29:00
6:30 AM,32.0,30.2,93,30.33,1.2,Calm,Calm,-,N/A,,Partly Cloudy,0,2012-11-30 12:30:00
6:31 AM,32.0,30.2,93,30.33,0.8,Calm,Calm,-,N/A,,Mist,0,2012-11-30 12:31:00
6:32 AM,32.0,30.2,93,30.33,0.5,Calm,Calm,-,N/A,Fog,Fog,0,2012-11-30 12:32:00
6:33 AM,32.0,30.2,93,30.33,0.2,Calm,Calm,-,N/A,Fog,Fog,0,2012-11-30 12:33:00
6:36 AM,32.0,32.0,100,30.34,0.2,Calm,Calm,-,N/A,Fog,Fog,0,2012-11-30 12:36:00
6:37 AM,32.0,32.0,100,30.34,0.2,Calm,Calm,-,N/A,Fog,Fog,0,2012-11-30 12:37:00
6:38 AM,32.0,32.0,100,30.34,0.2,Calm,Calm,-,N/A,Fog,Fog,0,2012-11-30 12:38:00
6:55 AM,31.3,30.4,96,30.34,0.2,Calm,Calm,-,N/A,Fog,Light Freezing Fog,0,2012-11-30 12:55:00
7:29 AM,32.0,32.0,100,30.35,0.2,Calm,Calm,-,N/A,Fog,Fog,0,2012-11-30 13:29:00
7:30 AM,32.0,32.0,100,30.35,0.2,Calm,Calm,-,N/A,Fog,Fog,0,2012-11-30 13:30:00
7:34 AM,32.0,32.0,100,30.34,0.5,Calm,Calm,-,N/A,Fog,Fog,0,2012-11-30 13:34:00
7:38 AM,32.0,32.0,100,30.35,0.8,Calm,Calm,-,N/A,,Clear,0,2012-11-30 13:38:00
7:46 AM,33.8,32.0,93,30.35,1.0,Calm,Calm,-,N/A,,Clear,0,2012-11-30 13:46:00
7:47 AM,33.8,33.8,100,30.35,1.2,Calm,Calm,-,N/A,,Clear,0,2012-11-30 13:47:00
7:48 AM,33.8,33.8,100,30.35,1.8,Calm,Calm,-,N/A,,Clear,0,2012-11-30 13:48:00
7:49 AM,33.8,33.8,100,30.35,2.0,Calm,Calm,-,N/A,,Clear,0,2012-11-30 13:49:00
7:53 AM,35.6,33.8,93,30.35,3.0,Calm,Calm,-,N/A,,Clear,0,2012-11-30 13:53:00
7:55 AM,35.2,34.9,99,30.35,4.0,Calm,Calm,-,N/A,,Clear,0,2012-11-30 13:55:00
7:56 AM,35.6,35.6,100,30.35,5.0,Calm,Calm,-,N/A,,Clear,0,2012-11-30 13:56:00
8:55 AM,43.9,43.9,100,30.36,9.0,Calm,Calm,-,N/A,,Clear,0,2012-11-30 14:55:00
9:55 AM,54.1,45.3,72,30.35,10.0,Variable,4.6,-,N/A,,Clear,0,2012-11-30 15:55:00
10:55 AM,59.5,45.7,60,30.33,10.0,SSE,6.9,-,N/A,,Clear,160,2012-11-30 16:55:00
11:55 AM,61.7,45.5,55,30.30,10.0,Variable,4.6,-,N/A,,Clear,0,2012-11-30 17:55:00
12:55 PM,62.8,43.0,48,30.27,10.0,Variable,4.6,-,N/A,,Clear,0,2012-11-30 18:55:00
1:55 PM,64.0,44.1,48,30.25,10.0,WSW,5.8,-,N/A,,Clear,250,2012-11-30 19:55:00
2:55 PM,63.9,45.3,51,30.24,7.0,South,5.8,-,N/A,,Clear,180,2012-11-30 20:55:00
3:55 PM,62.8,45.7,54,30.24,10.0,South,6.9,-,N/A,,Clear,190,2012-11-30 21:55:00
4:55 PM,55.9,45.3,68,30.24,10.0,South,3.5,-,N/A,,Clear,180,2012-11-30 22:55:00
5:55 PM,47.7,43.9,87,30.25,10.0,Calm,Calm,-,N/A,,Clear,0,2012-11-30 23:55:00
6:55 PM,47.1,44.1,89,30.25,10.0,Calm,Calm,-,N/A,,Clear,0,2012-12-01 00:55:00
7:55 PM,44.6,43.3,95,30.25,10.0,Calm,Calm,-,N/A,,Clear,0,2012-12-01 01:55:00
8:49 PM,42.8,41.0,93,30.25,3.0,Calm,Calm,-,N/A,,Clear,0,2012-12-01 02:49:00
8:50 PM,42.8,41.0,93,30.25,2.0,Calm,Calm,-,N/A,,Clear,0,2012-12-01 02:50:00
8:51 PM,42.8,41.0,93,30.25,1.5,Calm,Calm,-,N/A,,Clear,0,2012-12-01 02:51:00
8:52 PM,42.8,41.0,93,30.25,1.0,Calm,Calm,-,N/A,,Clear,0,2012-12-01 02:52:00
8:54 PM,42.8,41.0,93,30.25,0.8,Calm,Calm,-,N/A,,Clear,0,2012-12-01 02:54:00
8:55 PM,42.1,41.0,96,30.25,0.8,Calm,Calm,-,N/A,,Clear,0,2012-12-01 02:55:00
8:58 PM,41.0,41.0,100,30.25,1.0,Calm,Calm,-,N/A,,Clear,0,2012-12-01 02:58:00
9:00 PM,41.0,41.0,100,30.25,1.2,Calm,Calm,-,N/A,,Clear,0,2012-12-01 03:00:00
9:01 PM,41.0,41.0,100,30.25,1.8,Calm,Calm,-,N/A,,Clear,0,2012-12-01 03:01:00
9:02 PM,41.0,41.0,100,30.25,3.0,Calm,Calm,-,N/A,,Clear,0,2012-12-01 03:02:00
9:03 PM,41.0,41.0,100,30.25,5.0,Calm,Calm,-,N/A,,Clear,0,2012-12-01 03:03:00
9:19 PM,42.8,41.0,93,30.25,4.0,Calm,Calm,-,N/A,,Clear,0,2012-12-01 03:19:00
9:20 PM,42.8,41.0,93,30.25,2.5,Calm,Calm,-,N/A,,Clear,0,2012-12-01 03:20:00
9:22 PM,42.8,41.0,93,30.25,1.8,Calm,Calm,-,N/A,,Clear,0,2012-12-01 03:22:00
9:29 PM,42.8,42.8,100,30.25,2.0,Calm,Calm,-,N/A,,Clear,0,2012-12-01 03:29:00
9:30 PM,42.8,42.8,100,30.25,3.0,Calm,Calm,-,N/A,,Clear,0,2012-12-01 03:30:00
9:31 PM,42.8,42.8,100,30.25,4.0,Calm,Calm,-,N/A,,Clear,0,2012-12-01 03:31:00
9:37 PM,41.0,41.0,100,30.25,3.0,Calm,Calm,-,N/A,,Clear,0,2012-12-01 03:37:00
9:38 PM,41.0,41.0,100,30.25,2.5,Calm,Calm,-,N/A,,Clear,0,2012-12-01 03:38:00
9:48 PM,41.0,41.0,100,30.25,3.0,Calm,Calm,-,N/A,,Clear,0,2012-12-01 03:48:00
9:49 PM,42.8,41.0,93,30.25,4.0,Calm,Calm,-,N/A,,Clear,0,2012-12-01 03:49:00
9:50 PM,42.8,41.0,93,30.25,5.0,Calm,Calm,-,N/A,,Clear,0,2012-12-01 03:50:00
9:53 PM,42.8,41.0,93,30.25,3.0,Calm,Calm,-,N/A,,Clear,0,2012-12-01 03:53:00
9:54 PM,42.8,41.0,93,30.25,2.0,Calm,Calm,-,N/A,,Clear,0,2012-12-01 03:54:00
9:55 PM,42.1,41.5,98,30.25,2.0,Calm,Calm,-,N/A,,Clear,0,2012-12-01 03:55:00
10:03 PM,41.0,41.0,100,30.25,4.0,Calm,Calm,-,N/A,,Clear,0,2012-12-01 04:03:00
10:04 PM,41.0,41.0,100,30.25,7.0,Calm,Calm,-,N/A,,Clear,0,2012-12-01 04:04:00
10:55 PM,40.3,39.7,98,30.25,9.0,Calm,Calm,-,N/A,,Clear,0,2012-12-01 04:55:00
11:55 PM,40.1,39.6,98,30.25,10.0,Calm,Calm,-,N/A,,Clear,0,2012-12-01 05:55:00